EDT,Max TemperatureF,Mean TemperatureF,Min TemperatureF,Max Dew PointF,MeanDew PointF,Min DewpointF,Max Humidity, Mean Humidity, Min Humidity, Max Sea Level PressureIn, Mean Sea Level PressureIn, Min Sea Level PressureIn, Max VisibilityMiles, Mean VisibilityMiles, Min VisibilityMiles, Max Wind SpeedMPH, Mean Wind SpeedMPH, Max Gust SpeedMPH,PrecipitationIn, CloudCover, Events, WindDirDegrees
2013-9-1,80,72,64,70,68,64,97,86,72,29.83,29.80,29.76,10,9,4,13,5,20,0.10,5,Rain-Thunderstorm,232
2013-9-2,77,72,64,70,66,54,93,80,61,29.83,29.76,29.74,10,9,6,20,11,30,0.01,5,Rain-Thunderstorm,242
2013-9-3,66,63,57,58,56,53,84,75,65,30.00,29.90,29.82,10,10,5,18,13,29,0.03,8,Rain,272
2013-9-4,73,64,55,64,58,51,90,74,55,30.05,30.02,29.99,10,10,2,22,11,32,0.10,3,Rain,236
2013-9-5,66,57,46,63,50,37,96,69,37,30.25,30.13,30.00,10,10,2,15,10,18,0.00,4,,310
2013-9-6,66,54,41,51,44,38,93,69,43,30.31,30.24,30.13,10,10,10,12,6,,0.00,0,,225
2013-9-7,70,61,53,61,54,44,94,76,54,30.11,30.01,29.90,10,8,1,16,10,24,0.43,5,Rain,206
2013-9-8,69,60,51,66,56,45,94,75,50,30.12,30.00,29.88,10,10,6,15,9,23,0.00,5,Rain,16
2013-9-9,73,59,45,63,54,42,90,77,59,30.13,30.07,29.97,10,10,10,22,8,37,0.00,2,,230
2013-9-10,87,78,70,72,69,63,84,72,57,30.04,29.98,29.94,10,9,6,23,19,34,0.09,1,Rain-Thunderstorm,215
2013-9-11,88,79,71,73,70,66,88,73,55,30.05,30.01,29.94,10,8,2,23,16,34,0.25,1,Rain-Thunderstorm,229
2013-9-12,72,68,63,70,64,52,94,83,61,30.01,29.85,29.78,10,8,1,20,10,26,0.41,5,Rain-Thunderstorm,246
2013-9-13,63,58,52,55,47,41,78,71,66,30.06,29.92,29.81,10,10,10,20,12,26,0.00,8,,326
2013-9-14,59,54,50,44,40,37,80,62,49,30.16,30.12,30.05,10,10,10,15,10,20,0.00,3,,265
2013-9-15,64,56,48,55,46,34,93,68,54,30.17,30.13,30.09,10,10,10,15,7,23,0.03,2,Rain,200
2013-9-16,60,52,39,55,50,38,93,85,77,30.39,30.22,30.09,10,10,10,12,8,22,0.00,7,,338
2013-9-17,64,50,35,48,41,33,96,75,45,30.48,30.39,30.28,10,10,10,9,4,,0.00,0,,193
2013-9-18,70,61,52,54,45,36,89,60,48,30.27,30.20,30.12,10,10,10,18,9,24,0.00,0,,218
2013-9-19,72,61,50,61,55,47,96,75,60,30.14,30.08,30.02,10,9,5,18,10,26,0.00,0,Rain,241
2013-9-20,80,67,55,66,62,53,94,75,62,30.02,29.90,29.75,10,8,5,23,14,33,0.00,1,,195
2013-9-21,73,65,57,66,60,46,100,90,67,29.79,29.71,29.64,10,5,0,22,9,33,2.69,8,Fog-Rain,239
2013-9-22,57,54,52,46,44,38,77,68,59,30.06,29.92,29.80,10,10,10,16,13,23,0.00,7,,316
2013-9-23,57,50,42,45,42,39,92,71,51,30.18,30.13,30.06,10,10,10,12,5,,0.00,4,,224
2013-9-24,63,52,42,49,44,39,96,80,52,30.17,30.11,30.02,10,10,9,9,3,,0.00,2,,228
2013-9-25,68,54,39,54,45,37,97,78,45,30.03,30.00,29.96,10,10,2,8,4,,0.00,0,,207
2013-9-26,69,54,39,53,47,38,97,76,47,30.14,30.08,30.00,10,10,10,10,5,17,0.00,0,,105
2013-9-27,68,57,46,54,50,46,97,80,59,30.26,30.22,30.15,10,10,10,9,5,,0.00,1,,39
2013-9-28,71,58,46,56,51,45,93,73,57,30.28,30.22,30.15,10,10,9,13,6,23,0.00,0,,230
2013-9-29,75,65,57,60,52,47,93,67,50,30.14,30.05,29.99,10,10,8,23,16,37,0.00,2,,189
2013-9-30,73,68,62,61,57,51,94,78,57,30.01,29.99,29.98,10,10,7,20,11,25,0.00,7,Rain,214